This demonstration page uses our WeatherBlox Daily Observations layout. Learn more.

Left ArrowRight Arrow

Hourly Observations for September 15, 2022

Temp ( °F °C ) Dew Point ( °F °C ) Humidity (%) Winds ( mph kmh ) Pressure ( in mb ) Visibility ( mi km ) Precip ( " mm )
1:55 am 01:55 Clear 71 21.6 56 13.2 59 59 SSE 12 19 30.03 1017 10 16 0.00 0.00
2:55 am 02:55 Clear 70 21 55 12.9 60 60 SSE 10 17 30.04 1017 10 16 0.00 0.00
3:55 am 03:55 Mostly Cloudy 68 20.1 56 13.1 64 64 SSE 9 15 30.04 1017 10 16 0.00 0.00
4:55 am 04:55 Partly Cloudy 65 18.1 55 13 72 72 ESE 5 7 30.04 1017 10 16 0.00 0.00
5:55 am 05:55 Mostly Cloudy 66 19.1 55 12.8 67 67 SSE 6 9 30.05 1018 10 16 0.00 0.00
6:55 am 06:55 Clear 67 19.6 54 12.4 63 63 SSE 9 15 30.05 1018 10 16 0.00 0.00
7:55 am 07:55 Mostly Sunny 67 19.3 54 12.3 64 64 SE 8 13 30.06 1018 10 16 0.00 0.00
8:55 am 08:55 Partly Cloudy 69 20.7 55 12.9 61 61 SSE 10 17 30.06 1018 7 11 0.00 0.00
9:55 am 09:55 Mostly Sunny 72 22.2 55 12.7 55 55 S 12 19 30.06 1018 10 16 0.00 0.00
10:55 am 10:55 Sunny 76 24.4 56 13.3 50 50 SSE 10 17 30.01 1016 10 16 0.00 0.00
11:55 am 11:55 Sunny 80 26.4 52 11.3 39 39 S 15 24 30.04 1017 10 16 0.00 0.00
12:55 pm 12:55 Mostly Sunny 82 27.9 55 13 40 40 SSE 17 28 30.02 1017 10 16 0.00 0.00
1:55 pm 13:55 Mostly Sunny 85 29.3 52 11.3 33 33 SSE 18 30 30.00 1016 7 11 0.00 0.00
2:55 pm 14:55 Sunny 87 30.4 52 11.3 31 31 SSE 22 35 29.97 1015 8 13 0.00 0.00
3:55 pm 15:55 Mostly Cloudy 88 30.9 51 10.8 29 29 SSE 24 39 29.95 1014 8 13 0.00 0.00
4:55 pm 16:55 Partly Cloudy 86 30.1 49 9.6 28 28 SSE 21 33 29.95 1014 10 16 0.00 0.00
5:55 pm 17:55 Mostly Cloudy 84 28.9 51 10.5 32 32 SSE 21 33 29.95 1014 10 16 0.00 0.00
6:55 pm 18:55 Sunny 81 27.1 54 12.3 40 40 SE 16 26 29.94 1014 10 16 0.00 0.00
7:55 pm 19:55 Clear 78 25.5 52 10.9 40 40 SSE 15 24 29.93 1014 10 16 0.00 0.00
8:55 pm 20:55 Clear 72 22.4 55 12.6 54 54 SE 7 11 29.96 1014 10 16 0.00 0.00
9:55 pm 21:55 Mostly Clear 70 21.3 56 13.2 60 60 SE 7 11 29.97 1015 10 16 0.00 0.00
10:55 pm 22:55 Mostly Cloudy 71 21.4 56 13.3 60 60 SE 10 17 29.98 1015 10 16 0.00 0.00
11:55 pm 23:55 Partly Cloudy 72 22 56 13.3 58 58 SSE 13 20 29.98 1015 10 16 0.00 0.00

Powered by AerisWeather